Time,TemperatureF,DewpointF,PressureIn,WindDirection,WindDirectionDegrees,WindSpeedMPH,WindSpeedGustMPH,Humidity,HourlyPrecipIn,Conditions,Clouds,dailyrainin,SoftwareType,DateUTC
2013-03-26 00:03:00,62.0,46.0,30.00,WNW,296,2.0,6.0,55,0.00,,,0.01,,2013-03-26 04:03:00,
2013-03-26 00:12:00,62.0,46.0,30.00,WNW,296,2.0,6.0,55,0.00,,,0.01,,2013-03-26 04:12:00,
2013-03-26 00:23:00,62.0,47.0,30.00,WNW,303,2.0,6.0,57,0.00,,,0.01,,2013-03-26 04:23:00,
2013-03-26 00:33:00,61.0,46.0,30.00,WNW,300,1.0,5.0,57,0.00,,,0.01,,2013-03-26 04:33:00,
2013-03-26 00:43:00,61.0,46.0,30.00,WNW,300,1.0,5.0,57,0.00,,,0.01,,2013-03-26 04:43:00,
2013-03-26 00:53:00,61.0,45.0,30.01,WNW,295,2.0,5.0,56,0.00,,,0.01,,2013-03-26 04:53:00,
2013-03-26 01:02:00,61.0,44.0,30.01,WNW,300,3.0,8.0,53,0.00,,,0.01,,2013-03-26 05:02:00,
2013-03-26 01:12:00,61.0,44.0,30.01,WNW,300,3.0,8.0,53,0.00,,,0.01,,2013-03-26 05:12:00,
2013-03-26 01:22:00,61.0,42.0,30.01,WNW,299,6.0,12.0,49,0.00,,,0.00,,2013-03-26 05:22:00,
2013-03-26 01:32:00,61.0,43.0,30.02,NW,310,5.0,10.0,52,0.00,,,0.00,,2013-03-26 05:32:00,
2013-03-26 01:42:00,61.0,43.0,30.02,NW,310,5.0,10.0,52,0.00,,,0.00,,2013-03-26 05:42:00,
2013-03-26 01:52:00,61.0,41.0,30.02,WNW,301,4.0,9.0,48,0.00,,,0.00,,2013-03-26 05:52:00,
2013-03-26 02:02:00,59.0,40.0,30.02,WNW,302,7.0,15.0,50,0.00,,,0.00,,2013-03-26 06:02:00,
2013-03-26 02:12:00,59.0,40.0,30.02,WNW,302,7.0,15.0,50,0.00,,,0.00,,2013-03-26 06:12:00,
2013-03-26 02:22:00,59.0,42.0,30.02,NW,319,6.0,17.0,53,0.00,,,0.00,,2013-03-26 06:22:00,
2013-03-26 02:32:00,58.0,42.0,30.02,NW,313,6.0,13.0,56,0.00,,,0.00,,2013-03-26 06:32:00,
2013-03-26 02:42:00,58.0,42.0,30.02,NW,313,6.0,13.0,56,0.00,,,0.00,,2013-03-26 06:42:00,
2013-03-26 02:52:00,57.0,42.0,30.01,WNW,283,4.0,14.0,58,0.00,,,0.00,,2013-03-26 06:52:00,
2013-03-26 03:02:00,57.0,43.0,30.02,West,267,3.0,11.0,60,0.00,,,0.00,,2013-03-26 07:02:00,
2013-03-26 03:12:00,57.0,43.0,30.02,West,267,3.0,11.0,60,0.00,,,0.00,,2013-03-26 07:12:00,
2013-03-26 03:22:00,57.0,43.0,30.02,WNW,296,4.0,12.0,60,0.00,,,0.00,,2013-03-26 07:22:00,
2013-03-26 03:33:00,57.0,44.0,30.02,NW,309,3.0,13.0,61,0.00,,,0.00,,2013-03-26 07:33:00,
2013-03-26 03:42:00,57.0,44.0,30.02,NW,309,3.0,13.0,61,0.00,,,0.00,,2013-03-26 07:42:00,
2013-03-26 03:53:00,56.0,43.0,30.02,NW,318,4.0,13.0,61,0.00,,,0.00,,2013-03-26 07:53:00,
2013-03-26 04:02:00,56.0,44.0,30.01,NNW,343,3.0,9.0,64,0.00,,,0.00,,2013-03-26 08:02:00,
2013-03-26 04:12:00,56.0,44.0,30.01,NNW,343,3.0,9.0,64,0.00,,,0.00,,2013-03-26 08:12:00,
2013-03-26 04:22:00,56.0,44.0,30.02,NW,319,3.0,11.0,65,0.00,,,0.00,,2013-03-26 08:22:00,
2013-03-26 04:32:00,56.0,45.0,30.03,NNW,342,3.0,10.0,66,0.00,,,0.00,,2013-03-26 08:32:00,
2013-03-26 04:42:00,56.0,45.0,30.03,NNW,342,3.0,10.0,66,0.00,,,0.00,,2013-03-26 08:42:00,
2013-03-26 04:52:00,56.0,45.0,30.02,NNW,340,4.0,11.0,66,0.00,,,0.00,,2013-03-26 08:52:00,
2013-03-26 05:02:00,56.0,45.0,30.02,NNE,15,5.0,13.0,67,0.00,,,0.00,,2013-03-26 09:02:00,
2013-03-26 05:12:00,56.0,45.0,30.02,NNE,15,5.0,13.0,67,0.00,,,0.00,,2013-03-26 09:12:00,
2013-03-26 05:22:00,56.0,45.0,30.02,NW,304,4.0,10.0,67,0.00,,,0.00,,2013-03-26 09:22:00,
2013-03-26 05:33:00,56.0,45.0,30.02,NW,325,4.0,20.0,67,0.00,,,0.00,,2013-03-26 09:33:00,
2013-03-26 05:43:00,56.0,45.0,30.02,NW,325,4.0,20.0,67,0.00,,,0.00,,2013-03-26 09:43:00,
2013-03-26 05:52:00,56.0,45.0,30.03,NNE,23,3.0,8.0,67,0.00,,,0.00,,2013-03-26 09:52:00,
2013-03-26 06:03:00,55.0,45.0,30.04,NW,317,3.0,11.0,68,0.00,,,0.00,,2013-03-26 10:03:00,
2013-03-26 06:12:00,55.0,45.0,30.04,NW,317,3.0,11.0,68,0.00,,,0.00,,2013-03-26 10:12:00,
2013-03-26 06:22:00,55.0,44.0,30.04,NNE,18,3.0,7.0,67,0.00,,,0.00,,2013-03-26 10:22:00,
2013-03-26 06:32:00,55.0,43.0,30.05,WNW,301,3.0,7.0,65,0.00,,,0.00,,2013-03-26 10:32:00,
2013-03-26 06:42:00,55.0,43.0,30.05,WNW,301,3.0,7.0,65,0.00,,,0.00,,2013-03-26 10:42:00,
2013-03-26 06:53:00,55.0,43.0,30.06,NNW,333,2.0,8.0,65,0.00,,,0.00,,2013-03-26 10:53:00,
2013-03-26 07:03:00,54.0,43.0,30.07,NW,318,2.0,6.0,67,0.00,,,0.00,,2013-03-26 11:03:00,
2013-03-26 07:12:00,54.0,43.0,30.07,NW,318,2.0,6.0,67,0.00,,,0.00,,2013-03-26 11:12:00,
2013-03-26 07:22:00,54.0,43.0,30.07,North,360,1.0,6.0,66,0.00,,,0.00,,2013-03-26 11:22:00,
2013-03-26 07:32:00,54.0,43.0,30.08,NW,311,1.0,5.0,67,0.00,,,0.00,,2013-03-26 11:32:00,
2013-03-26 07:42:00,54.0,43.0,30.08,NW,311,1.0,5.0,67,0.00,,,0.00,,2013-03-26 11:42:00,
2013-03-26 07:52:00,53.0,43.0,30.08,NW,325,1.0,4.0,69,0.00,,,0.00,,2013-03-26 11:52:00,
2013-03-26 08:03:00,53.0,43.0,30.08,NW,325,1.0,4.0,69,0.00,,,0.00,,2013-03-26 12:03:00,
2013-03-26 08:12:00,53.0,43.0,30.08,NW,325,1.0,4.0,69,0.00,,,0.00,,2013-03-26 12:12:00,
2013-03-26 08:22:00,54.0,44.0,30.09,NW,317,1.0,7.0,68,0.00,,,0.00,,2013-03-26 12:22:00,
2013-03-26 08:32:00,55.0,43.0,30.09,North,355,2.0,8.0,63,0.00,,,0.00,,2013-03-26 12:32:00,
2013-03-26 08:43:00,55.0,43.0,30.09,North,355,2.0,8.0,63,0.00,,,0.00,,2013-03-26 12:43:00,
2013-03-26 08:52:00,56.0,42.0,30.10,WNW,302,3.0,9.0,59,0.00,,,0.00,,2013-03-26 12:52:00,
2013-03-26 09:03:00,57.0,41.0,30.11,NNE,29,3.0,9.0,56,0.00,,,0.00,,2013-03-26 13:03:00,
2013-03-26 09:12:00,57.0,41.0,30.11,NNE,29,3.0,9.0,56,0.00,,,0.00,,2013-03-26 13:12:00,
2013-03-26 09:22:00,58.0,40.0,30.11,NW,304,3.0,12.0,51,0.00,,,0.00,,2013-03-26 13:22:00,
2013-03-26 09:32:00,59.0,39.0,30.12,NW,319,4.0,9.0,48,0.00,,,0.00,,2013-03-26 13:32:00,
2013-03-26 09:42:00,59.0,39.0,30.12,NW,319,4.0,9.0,48,0.00,,,0.00,,2013-03-26 13:42:00,
2013-03-26 09:52:00,60.0,39.0,30.13,NNW,330,4.0,12.0,46,0.00,,,0.00,,2013-03-26 13:52:00,
2013-03-26 10:02:00,60.0,40.0,30.13,NW,309,4.0,9.0,47,0.00,,,0.00,,2013-03-26 14:02:00,
2013-03-26 10:12:00,60.0,40.0,30.13,NW,309,4.0,9.0,47,0.00,,,0.00,,2013-03-26 14:12:00,
2013-03-26 10:22:00,61.0,41.0,30.13,NNE,13,4.0,8.0,48,0.00,,,0.00,,2013-03-26 14:22:00,
2013-03-26 10:33:00,61.0,42.0,30.13,WNW,298,4.0,13.0,49,0.00,,,0.00,,2013-03-26 14:33:00,
2013-03-26 10:42:00,61.0,42.0,30.13,WNW,298,4.0,13.0,49,0.00,,,0.00,,2013-03-26 14:42:00,
2013-03-26 10:53:00,62.0,42.0,30.14,North,9,4.0,10.0,48,0.00,,,0.00,,2013-03-26 14:53:00,
2013-03-26 11:02:00,62.0,42.0,30.13,WNW,302,4.0,10.0,47,0.00,,,0.00,,2013-03-26 15:02:00,
2013-03-26 11:12:00,62.0,42.0,30.13,WNW,302,4.0,10.0,47,0.00,,,0.00,,2013-03-26 15:12:00,
2013-03-26 11:22:00,62.0,42.0,30.13,WNW,296,5.0,11.0,48,0.00,,,0.00,,2013-03-26 15:22:00,
2013-03-26 11:33:00,63.0,41.0,30.14,NNW,348,3.0,9.0,45,0.00,,,0.00,,2013-03-26 15:33:00,
2013-03-26 11:43:00,63.0,41.0,30.14,NNW,348,3.0,9.0,45,0.00,,,0.00,,2013-03-26 15:43:00,
2013-03-26 11:53:00,63.0,41.0,30.13,WNW,286,5.0,12.0,45,0.00,,,0.00,,2013-03-26 15:53:00,
2013-03-26 12:03:00,65.0,41.0,30.13,WNW,296,3.0,10.0,42,0.00,,,0.00,,2013-03-26 16:03:00,
2013-03-26 12:13:00,65.0,41.0,30.13,WNW,296,3.0,10.0,42,0.00,,,0.00,,2013-03-26 16:13:00,
2013-03-26 12:23:00,65.0,41.0,30.13,WNW,296,3.0,10.0,42,0.00,,,0.00,,2013-03-26 16:23:00,
2013-03-26 12:32:00,65.0,39.0,30.13,WNW,286,6.0,11.0,39,0.00,,,0.00,,2013-03-26 16:32:00,
2013-03-26 12:42:00,65.0,39.0,30.13,WNW,286,6.0,11.0,39,0.00,,,0.00,,2013-03-26 16:42:00,
2013-03-26 12:53:00,65.0,39.0,30.13,WNW,286,6.0,11.0,39,0.00,,,0.00,,2013-03-26 16:53:00,
2013-03-26 13:03:00,65.0,36.0,30.13,NW,311,5.0,13.0,34,0.00,,,0.00,,2013-03-26 17:03:00,
2013-03-26 13:12:00,65.0,36.0,30.13,NW,311,5.0,13.0,34,0.00,,,0.00,,2013-03-26 17:12:00,
2013-03-26 13:23:00,65.0,36.0,30.13,WNW,288,7.0,15.0,34,0.00,,,0.00,,2013-03-26 17:23:00,
2013-03-26 13:33:00,66.0,34.0,30.12,NW,306,4.0,10.0,31,0.00,,,0.00,,2013-03-26 17:33:00,
2013-03-26 13:42:00,66.0,34.0,30.12,NW,306,4.0,10.0,31,0.00,,,0.00,,2013-03-26 17:42:00,
2013-03-26 13:52:00,66.0,37.0,30.11,NNW,327,3.0,11.0,34,0.00,,,0.00,,2013-03-26 17:52:00,
2013-03-26 14:02:00,66.0,39.0,30.11,NW,308,6.0,12.0,37,0.00,,,0.00,,2013-03-26 18:02:00,
2013-03-26 14:12:00,66.0,39.0,30.11,NW,308,6.0,12.0,37,0.00,,,0.00,,2013-03-26 18:12:00,
2013-03-26 14:23:00,67.0,40.0,30.11,WNW,294,3.0,10.0,37,0.00,,,0.00,,2013-03-26 18:23:00,
2013-03-26 14:34:00,67.0,37.0,30.11,NW,313,6.0,14.0,33,0.00,,,0.00,,2013-03-26 18:34:00,
2013-03-26 14:42:00,67.0,37.0,30.11,NW,313,6.0,14.0,33,0.00,,,0.00,,2013-03-26 18:42:00,
2013-03-26 14:52:00,67.0,35.0,30.10,NW,307,6.0,13.0,31,0.00,,,0.00,,2013-03-26 18:52:00,
2013-03-26 15:03:00,67.0,40.0,30.09,West,259,6.0,13.0,37,0.00,,,0.00,,2013-03-26 19:03:00,
2013-03-26 15:12:00,67.0,40.0,30.09,West,259,6.0,13.0,37,0.00,,,0.00,,2013-03-26 19:12:00,
2013-03-26 15:22:00,67.0,39.0,30.09,NW,316,4.0,14.0,36,0.00,,,0.00,,2013-03-26 19:22:00,
2013-03-26 15:32:00,67.0,41.0,30.10,WNW,296,3.0,14.0,38,0.00,,,0.00,,2013-03-26 19:32:00,
2013-03-26 15:42:00,67.0,41.0,30.10,WNW,296,3.0,14.0,38,0.00,,,0.00,,2013-03-26 19:42:00,
2013-03-26 15:53:00,67.0,41.0,30.09,NW,308,4.0,9.0,39,0.00,,,0.00,,2013-03-26 19:53:00,
2013-03-26 16:02:00,68.0,40.0,30.09,NW,311,5.0,17.0,36,0.00,,,0.00,,2013-03-26 20:02:00,
2013-03-26 16:13:00,68.0,40.0,30.09,NW,311,5.0,17.0,36,0.00,,,0.00,,2013-03-26 20:13:00,
2013-03-26 16:22:00,67.0,40.0,30.09,West,281,4.0,12.0,37,0.00,,,0.00,,2013-03-26 20:22:00,
2013-03-26 16:32:00,67.0,39.0,30.09,NW,309,3.0,17.0,36,0.00,,,0.00,,2013-03-26 20:32:00,
2013-03-26 16:43:00,67.0,39.0,30.09,NW,309,3.0,17.0,36,0.00,,,0.00,,2013-03-26 20:43:00,
2013-03-26 16:52:00,67.0,40.0,30.09,North,360,6.0,14.0,37,0.00,,,0.00,,2013-03-26 20:52:00,
2013-03-26 17:02:00,67.0,41.0,30.09,NW,304,6.0,13.0,38,0.00,,,0.00,,2013-03-26 21:02:00,
2013-03-26 17:13:00,67.0,41.0,30.09,NW,304,6.0,13.0,38,0.00,,,0.00,,2013-03-26 21:13:00,
2013-03-26 17:22:00,67.0,41.0,30.09,NW,318,5.0,12.0,38,0.00,,,0.00,,2013-03-26 21:22:00,
2013-03-26 17:33:00,67.0,41.0,30.09,NW,318,5.0,12.0,38,0.00,,,0.00,,2013-03-26 21:33:00,
2013-03-26 17:43:00,67.0,41.0,30.09,NW,318,5.0,12.0,38,0.00,,,0.00,,2013-03-26 21:43:00,
2013-03-26 17:52:00,67.0,41.0,30.09,NW,318,5.0,12.0,38,0.00,,,0.00,,2013-03-26 21:52:00,
2013-03-26 18:22:00,66.0,43.0,30.09,NW,304,3.0,11.0,44,0.00,,,0.00,,2013-03-26 22:22:00,
2013-03-26 18:33:00,66.0,43.0,30.09,NW,304,3.0,11.0,44,0.00,,,0.00,,2013-03-26 22:33:00,
2013-03-26 19:22:00,64.0,43.0,30.11,WNW,292,6.0,13.0,46,0.00,,,0.00,,2013-03-26 23:22:00,
2013-03-26 19:32:00,63.0,42.0,30.11,NW,319,5.0,12.0,46,0.00,,,0.00,,2013-03-26 23:32:00,
2013-03-26 19:42:00,63.0,42.0,30.11,NW,319,5.0,12.0,46,0.00,,,0.00,,2013-03-26 23:42:00,
2013-03-26 19:52:00,62.0,41.0,30.12,NNW,328,3.0,11.0,46,0.00,,,0.00,,2013-03-26 23:52:00,
2013-03-26 20:02:00,61.0,40.0,30.13,NW,306,5.0,10.0,46,0.00,,,0.00,,2013-03-27 00:02:00,
2013-03-26 20:12:00,61.0,40.0,30.13,NW,306,5.0,10.0,46,0.00,,,0.00,,2013-03-27 00:12:00,
2013-03-26 20:22:00,60.0,39.0,30.14,NW,320,5.0,12.0,46,0.00,,,0.00,,2013-03-27 00:22:00,
2013-03-26 20:33:00,59.0,38.0,30.15,NW,320,4.0,11.0,46,0.00,,,0.00,,2013-03-27 00:33:00,
2013-03-26 20:42:00,59.0,38.0,30.15,NW,320,4.0,11.0,46,0.00,,,0.00,,2013-03-27 00:42:00,
2013-03-26 20:52:00,59.0,37.0,30.16,NW,313,4.0,10.0,44,0.00,,,0.00,,2013-03-27 00:52:00,
2013-03-26 21:02:00,58.0,37.0,30.16,NW,308,3.0,12.0,45,0.00,,,0.00,,2013-03-27 01:02:00,
2013-03-26 21:12:00,58.0,37.0,30.16,NW,308,3.0,12.0,45,0.00,,,0.00,,2013-03-27 01:12:00,
2013-03-26 21:23:00,58.0,38.0,30.17,NW,323,2.0,8.0,47,0.00,,,0.00,,2013-03-27 01:23:00,
2013-03-26 21:33:00,57.0,36.0,30.17,NNW,336,3.0,8.0,46,0.00,,,0.00,,2013-03-27 01:33:00,
2013-03-26 21:42:00,57.0,36.0,30.17,NNW,336,3.0,8.0,46,0.00,,,0.00,,2013-03-27 01:42:00,
2013-03-26 21:52:00,57.0,36.0,30.17,NNW,336,3.0,8.0,46,0.00,,,0.00,,2013-03-27 01:52:00,
2013-03-26 22:03:00,56.0,36.0,30.19,North,355,2.0,10.0,47,0.00,,,0.00,,2013-03-27 02:03:00,
2013-03-26 22:12:00,56.0,36.0,30.19,North,355,2.0,10.0,47,0.00,,,0.00,,2013-03-27 02:12:00,
2013-03-26 22:22:00,55.0,37.0,30.19,WNW,303,1.0,5.0,50,0.00,,,0.00,,2013-03-27 02:22:00,
2013-03-26 22:32:00,54.0,35.0,30.20,NNW,338,2.0,7.0,49,0.00,,,0.00,,2013-03-27 02:32:00,
2013-03-26 22:42:00,54.0,35.0,30.20,NNW,338,2.0,7.0,49,0.00,,,0.00,,2013-03-27 02:42:00,
2013-03-26 22:52:00,54.0,37.0,30.20,WNW,300,1.0,9.0,52,0.00,,,0.00,,2013-03-27 02:52:00,
2013-03-26 23:02:00,53.0,35.0,30.21,NW,311,1.0,8.0,51,0.00,,,0.00,,2013-03-27 03:02:00,
2013-03-26 23:12:00,53.0,35.0,30.21,NW,311,1.0,8.0,51,0.00,,,0.00,,2013-03-27 03:12:00,
2013-03-26 23:22:00,53.0,36.0,30.21,NW,317,1.0,9.0,52,0.00,,,0.00,,2013-03-27 03:22:00,
2013-03-26 23:33:00,53.0,36.0,30.22,NW,319,1.0,6.0,53,0.00,,,0.00,,2013-03-27 03:33:00,
2013-03-26 23:42:00,53.0,36.0,30.22,NW,319,1.0,6.0,53,0.00,,,0.00,,2013-03-27 03:42:00,
2013-03-26 23:52:00,52.0,35.0,30.22,NW,312,2.0,5.0,52,0.00,,,0.00,,2013-03-27 03:52:00,